Theta_e
324 326 325 324 326 328 329 330 330 330 331 332 331 331 331 330 330 329 330 330 329 328 328 328 327 327 328 328 327 328 329 329 330 329 330 331 332 332 333 331 331 334 332 330 329 332 329 329 328 328 328 326 325 324 324 323 324 325 325 326 326 325 325 325 325 326 323 320 321 321 321 324 327 326 326 326 325 325 325 325 326 328 329 330 330
324 324 324 325 326 327 328 328 329 327 329 330 330 330 330 331 330 329 330 330 329 329 329 329 328 328 328 328 326 328 330 330 329 329 329 330 331 332 333 331 330 333 332 330 329 329 327 328 328 328 328 325 324 324 324 327 325 325 325 324 323 325 323 325 325 325 319 318 318 316 319 320 322 320 322 324 325 325 324 325 326 327 328 329 330
322 323 323 324 325 326 327 327 328 329 329 329 330 330 330 330 330 330 329 329 329 330 329 328 327 327 329 327 327 327 329 331 330 328 330 329 329 330 332 331 331 332 331 331 329 327 326 327 327 328 327 327 325 325 326 324 324 325 325 325 323 324 324 325 324 322 320 319 319 317 313 313 316 316 316 317 322 323 325 326 326 327 327 328 329
320 322 322 324 325 325 326 326 327 328 328 328 329 329 329 329 329 329 329 329 329 330 328 327 328 325 325 326 325 326 326 328 327 328 328 329 331 332 331 331 332 332 331 330 328 327 326 326 328 328 327 327 326 325 325 324 323 324 324 325 325 322 321 322 324 321 321 319 315 313 313 311 310 311 312 314 319 321 324 324 326 326 326 327 328
320 321 322 323 323 323 324 325 327 326 326 327 328 328 329 328 329 329 328 328 329 329 327 327 327 324 324 324 326 325 325 324 326 325 328 329 329 330 330 330 331 331 330 329 328 327 327 327 327 328 328 326 327 326 325 324 324 324 325 325 325 324 319 317 321 322 322 321 318 313 312 312 308 312 311 312 315 319 323 325 325 325 325 326 327
321 321 322 323 323 323 324 324 325 326 326 327 328 329 329 328 329 328 328 327 328 327 325 326 326 324 324 324 322 318 319 320 319 324 326 329 329 326 327 329 330 329 328 326 328 327 327 327 328 328 328 327 326 326 326 325 324 324 324 326 324 325 324 320 320 322 321 321 320 320 317 313 312 312 311 308 315 316 319 321 322 323 324 325 326
322 322 323 323 323 322 323 323 324 325 326 328 328 328 329 328 328 328 327 327 327 325 325 325 322 323 323 323 322 321 321 316 317 321 326 323 324 325 325 326 327 328 327 325 325 326 326 327 328 328 328 326 327 325 325 325 325 325 324 324 324 324 324 322 321 321 321 322 320 320 322 318 317 313 308 309 310 313 314 316 319 323 324 324 322
321 322 323 323 323 322 322 324 324 325 327 328 328 328 327 327 327 326 326 325 324 322 323 324 322 321 320 320 321 320 320 319 319 319 319 322 321 322 323 323 324 324 324 324 323 325 325 324 326 327 327 326 326 326 326 326 326 326 325 324 324 325 324 322 320 322 322 321 320 318 318 317 315 313 315 315 312 310 311 316 318 320 320 319 317
322 321 322 323 322 323 324 324 325 326 327 327 328 328 327 326 325 324 323 322 320 321 321 321 322 321 321 321 320 318 319 319 320 321 320 320 319 318 320 319 319 320 321 322 322 323 327 324 324 325 326 327 328 325 325 326 327 325 324 323 323 323 323 323 323 322 321 319 317 316 315 314 313 314 312 313 311 310 310 313 313 318 318 314 313
323 323 323 323 323 323 324 324 324 326 328 328 328 327 325 323 322 322 321 321 320 320 320 319 320 321 320 320 319 317 318 316 318 317 316 316 317 314 314 316 316 317 318 319 321 323 325 324 323 324 324 326 327 325 325 325 325 325 324 324 323 322 322 323 323 322 320 320 321 318 314 312 313 313 311 312 312 313 312 312 315 315 313 312 313
323 323 324 323 324 324 323 323 324 325 327 327 326 326 324 321 320 321 319 319 319 318 318 317 318 320 321 320 319 316 315 316 316 315 314 315 316 313 313 313 314 315 316 316 317 317 320 324 322 322 323 328 326 325 325 325 325 325 323 323 323 322 321 322 321 320 321 321 320 320 316 315 313 312 311 312 312 310 310 310 311 312 314 312 310
323 323 322 322 322 321 322 322 323 324 325 325 325 325 324 320 319 319 317 318 317 317 317 317 318 318 319 320 318 316 316 317 317 315 314 315 313 313 312 314 314 314 314 315 316 317 319 319 321 321 323 324 323 324 325 325 324 323 322 322 322 321 321 321 320 320 320 321 321 320 317 316 315 315 313 314 314 313 313 311 309 308 308 306 307
323 322 322 321 320 320 320 321 322 323 323 324 324 324 323 319 318 318 317 316 317 317 317 316 317 317 319 318 317 316 317 317 317 315 313 314 313 313 314 314 313 316 315 316 315 316 317 316 318 320 322 322 322 321 322 323 323 323 322 322 321 321 321 321 320 320 321 321 321 320 318 316 315 314 314 313 313 313 312 310 305 307 307 305 307
323 322 322 321 320 320 321 321 322 323 324 324 324 324 322 319 317 319 317 316 316 316 316 315 316 316 317 317 316 317 316 316 316 316 314 314 315 315 315 315 315 316 315 315 315 316 315 317 318 318 319 319 320 320 320 321 322 323 322 321 321 321 320 319 320 319 320 321 321 319 318 317 315 314 313 313 312 312 311 311 306 305 306 305 302
323 322 321 321 321 320 320 321 322 323 324 323 323 323 321 317 317 318 317 316 317 316 315 315 314 314 316 316 316 316 315 315 315 316 315 314 314 315 314 314 315 314 315 315 316 314 315 315 317 317 318 319 319 320 321 320 321 322 322 321 319 319 320 319 318 319 319 319 319 320 318 317 315 312 312 313 314 314 312 310 309 306 303 303 303
322 322 322 322 321 320 320 320 322 323 323 323 323 322 320 318 318 318 318 317 316 316 315 314 313 314 314 314 314 315 316 314 314 315 315 315 315 315 314 314 314 314 314 315 315 314 313 315 316 316 317 318 319 318 319 319 319 319 318 317 316 317 317 317 317 318 319 319 319 318 319 317 315 313 312 313 314 314 313 312 313 311 307 303 300
322 322 322 322 322 320 320 320 322 322 323 323 322 322 320 318 317 317 317 317 316 315 314 313 313 313 312 313 313 313 313 314 314 314 314 314 315 314 314 314 314 314 315 314 312 310 311 313 315 314 315 315 316 316 316 316 316 316 313 312 312 312 315 314 314 317 317 317 316 318 320 317 314 314 312 313 313 312 312 312 313 312 311 305 301
323 323 323 323 322 321 320 321 322 323 323 322 322 321 319 319 318 318 317 316 315 314 314 313 313 313 312 312 313 314 314 314 315 315 314 314 313 313 313 314 314 314 315 315 311 312 313 316 312 312 312 314 314 314 314 313 312 311 310 310 310 310 310 310 311 312 312 313 312 313 315 316 313 315 312 312 312 312 310 311 311 311 311 308 304
321 321 322 323 323 322 321 322 323 323 323 322 321 319 318 316 317 318 317 316 315 314 313 314 314 314 314 313 313 312 313 314 315 316 315 315 314 313 313 313 312 314 314 311 310 309 310 310 310 310 311 311 311 311 311 311 311 310 311 310 309 310 309 309 309 310 310 311 310 310 309 312 311 315 313 311 312 311 309 308 307 308 308 310 308
320 321 322 323 323 323 322 322 322 322 322 321 319 319 318 318 318 317 317 316 315 314 314 314 314 314 313 312 313 314 315 315 315 315 315 315 314 313 312 312 312 313 310 309 309 308 309 309 309 309 309 309 309 309 309 310 310 309 310 309 309 309 309 309 308 309 309 309 309 309 309 309 310 313 312 311 310 310 309 307 307 307 304 306 307
316 319 318 321 322 321 322 322 323 323 322 320 319 318 318 318 317 318 317 316 316 315 315 315 315 314 314 313 313 314 315 314 314 314 314 313 313 313 312 312 311 310 309 308 307 307 307 308 309 310 309 309 308 308 309 309 310 309 309 309 308 308 308 308 310 309 309 309 309 308 307 308 310 312 312 310 309 308 308 308 306 305 304 305 306
309 310 311 311 312 314 316 318 319 320 320 319 319 320 319 318 318 318 318 317 317 316 316 315 315 314 314 314 314 314 313 314 313 313 313 312 312 312 311 310 311 309 308 308 307 308 307 307 307 307 307 307 307 308 307 308 309 309 309 309 308 308 308 307 308 308 308 308 307 307 307 308 309 310 310 309 309 308 307 306 305 305 304 304 305
310 311 311 312 313 314 316 317 319 319 318 320 320 320 318 317 318 318 318 318 318 317 317 316 315 314 314 314 313 313 314 313 313 312 312 312 311 310 311 310 309 308 308 307 307 306 307 307 306 306 306 306 307 307 307 308 308 309 309 308 308 308 308 308 308 307 307 307 308 308 307 307 308 309 309 309 309 308 308 307 306 305 304 304 303
311 311 312 313 314 315 315 316 316 316 317 318 319 318 317 317 318 318 318 318 317 317 317 316 314 313 313 312 312 312 312 313 313 312 311 310 310 309 310 309 308 307 307 307 306 306 306 306 306 306 305 306 306 306 306 306 307 308 308 308 307 307 307 307 308 307 306 307 307 307 306 307 308 308 307 308 308 309 309 308 307 305 305 303 305
307 308 311 313 314 313 313 314 315 315 317 317 317 317 316 317 317 317 317 318 317 318 317 316 315 314 313 312 312 312 312 312 312 311 311 310 310 309 309 308 307 307 306 307 307 305 305 305 306 306 306 306 306 306 306 306 306 306 307 307 307 307 307 306 307 306 309 306 307 308 306 306 307 307 307 307 307 308 307 308 307 305 305 305 306
300 301 301 303 306 309 310 312 314 315 316 316 314 313 314 315 316 317 317 317 317 317 317 316 315 314 314 314 313 313 312 311 312 311 311 310 310 309 308 308 308 307 306 306 305 306 306 304 305 305 306 306 306 305 306 306 306 306 306 306 307 307 307 307 306 307 307 306 307 306 306 307 307 308 308 307 307 307 306 307 306 305 305 306 306
298 298 300 301 301 302 305 308 313 314 314 315 316 315 315 315 316 315 316 317 317 317 316 315 315 314 314 314 315 314 313 312 311 311 310 310 310 309 309 308 308 308 307 307 305 306 307 305 305 305 306 306 305 305 305 305 306 306 306 306 306 306 306 306 306 306 307 306 306 306 306 306 307 308 308 308 307 307 308 307 307 307 305 306 306
296 296 297 298 299 299 300 303 307 311 314 314 315 315 315 316 315 315 315 316 316 316 314 314 314 314 314 314 314 314 314 312 312 311 310 309 309 309 308 309 309 308 308 307 306 306 306 305 305 305 306 307 305 305 304 306 306 306 307 306 306 307 307 306 306 306 306 306 306 306 306 307 307 308 309 308 308 308 308 307 307 307 307 307 306
294 295 296 296 296 297 298 301 305 308 310 312 313 314 315 314 314 315 315 314 315 315 314 314 314 313 313 313 314 315 314 313 311 310 309 309 309 309 309 309 309 309 310 308 308 307 307 306 305 305 306 307 306 306 306 307 307 306 306 307 306 307 307 307 306 306 306 306 306 306 306 306 310 312 307 307 307 308 309 308 306 308 307 307 306
294 294 295 296 296 297 298 299 300 302 305 308 309 308 310 312 313 314 315 316 316 314 314 313 313 312 313 313 313 313 313 313 312 311 312 311 310 310 309 309 309 309 309 308 307 308 307 307 307 306 306 307 307 307 309 306 306 307 306 306 307 307 307 307 308 307 307 306 307 307 310 313 311 310 307 303 302 303 307 310 309 308 308 307 307
294 294 295 296 297 297 297 297 298 299 299 300 300 300 302 302 303 304 306 309 311 310 310 310 310 312 312 311 311 310 310 310 310 310 311 311 311 311 311 311 310 309 308 308 306 306 305 305 306 306 306 306 307 308 301 299 298 301 305 306 307 307 307 308 308 307 308 308 308 308 308 311 313 312 310 302 300 299 299 301 303 304 308 310 307
294 295 295 295 296 296 296 296 297 297 298 298 298 299 299 298 300 301 302 302 302 302 302 302 302 302 302 302 303 302 302 302 302 303 304 305 305 305 306 308 310 310 310 311 310 309 308 306 304 305 305 305 306 303 297 297 298 298 299 306 306 307 307 307 308 308 308 308 308 308 309 309 310 311 310 309 304 299 298 299 299 299 300 301 302
294 295 295 295 296 296 296 296 296 297 297 298 298 298 298 298 298 300 300 300 300 300 299 299 299 300 299 300 300 299 299 299 298 299 299 300 300 300 300 301 303 305 306 306 306 307 308 309 309 308 308 307 307 297 293 293 294 295 296 300 306 307 308 308 307 308 309 309 309 309 309 309 310 312 314 311 309 308 300 299 299 299 298 298 297
294 294 295 295 296 297 297 297 297 298 298 297 298 297 298 299 298 299 299 298 298 298 298 298 298 298 299 299 299 298 297 297 298 298 298 298 298 297 298 299 300 300 301 301 302 302 303 305 307 307 307 308 307 298 295 294 294 294 294 297 304 306 307 308 308 308 309 310 310 310 310 310 310 311 311 309 308 307 305 305 304 304 305 300 295
293 294 294 294 295 295 296 296 296 297 298 298 297 297 298 297 298 297 298 298 297 297 297 297 297 298 298 298 298 298 297 297 297 298 297 296 297 297 297 297 297 297 297 298 299 299 300 301 302 303 304 304 303 294 294 294 294 294 294 297 302 304 305 306 308 309 309 310 310 310 310 311 311 310 310 308 308 307 306 306 305 304 303 303 302
293 293 294 295 295 296 296 296 298 297 296 296 296 298 297 297 298 297 297 297 296 296 296 297 296 297 298 298 298 297 297 297 297 297 297 296 296 296 296 297 297 296 296 297 297 298 297 298 299 300 301 301 301 293 293 293 294 294 296 305 304 304 304 305 306 308 309 310 310 310 310 311 311 311 306 300 303 307 306 306 306 305 303 301 300
293 294 294 295 296 297 297 298 297 297 297 297 297 297 297 296 296 296 296 296 296 295 295 296 296 297 297 298 297 297 297 297 297 296 295 295 295 295 296 297 296 295 295 295 295 295 296 297 297 298 298 299 299 295 293 293 293 294 298 304 306 306 306 306 307 308 308 309 310 311 311 311 311 311 304 299 297 300 307 307 307 307 306 303 302
293 294 295 295 294 296 297 297 297 297 297 298 298 297 296 296 295 296 296 296 295 295 296 296 296 297 297 297 297 297 296 296 296 295 295 295 296 295 295 295 294 295 295 294 295 294 294 295 295 296 298 296 297 296 292 292 292 293 297 302 304 305 306 307 308 309 309 309 310 308 311 312 311 311 302 298 295 301 308 308 308 307 307 305 304
293 294 294 295 296 296 296 296 296 296 297 298 298 297 296 296 296 296 295 295 295 295 296 295 296 296 297 297 296 296 296 296 295 296 296 295 295 295 295 295 295 294 294 294 295 293 293 293 294 295 297 295 295 295 293 291 292 292 296 300 302 303 304 305 306 308 309 308 309 307 306 306 309 307 299 297 294 300 310 309 309 308 307 307 308
294 294 294 295 296 295 294 294 294 294 296 296 296 296 296 295 295 295 294 294 295 295 296 296 297 297 297 297 296 296 296 295 294 294 295 294 295 295 295 295 294 294 293 293 293 292 291 292 292 293 293 294 294 294 294 291 292 292 292 298 300 300 300 301 303 304 305 307 308 308 306 299 295 296 297 296 294 295 308 310 309 307 307 307 307
292 292 293 292 292 293 293 294 294 294 295 295 295 294 294 294 294 293 293 294 295 295 295 295 295 295 296 296 296 296 295 294 294 294 294 294 294 293 293 294 294 294 294 293 292 292 291 291 291 292 292 293 295 294 294 291 291 292 291 293 297 298 299 300 300 301 303 304 306 307 308 302 297 295 295 295 295 294 296 307 309 309 309 308 298
293 293 292 291 291 291 292 293 294 294 295 294 294 293 293 293 293 292 293 294 294 294 294 294 294 294 294 294 294 295 295 295 295 294 293 293 294 294 294 294 293 293 292 292 291 292 291 291 291 291 292 292 293 295 293 292 291 291 291 291 294 296 295 297 298 299 301 303 304 306 306 303 298 295 294 295 295 295 294 301 305 299 299 293 301
291 291 292 292 291 291 291 292 293 294 294 294 294 293 292 292 292 292 294 294 294 294 294 294 294 294 294 294 294 294 294 294 294 293 292 292 292 292 292 292 292 291 291 290 290 290 290 290 291 291 291 292 292 293 292 292 292 291 291 291 290 292 290 294 296 297 299 300 303 304 305 300 296 295 294 294 294 294 295 299 296 295 295 293 295
291 292 292 292 291 291 291 292 292 293 294 294 293 292 292 292 291 293 293 293 292 291 291 292 292 292 292 293 293 292 291 291 292 292 292 291 291 291 291 291 291 291 290 290 290 290 290 290 290 290 291 291 291 292 292 291 291 291 290 290 290 290 290 293 295 295 297 298 299 301 300 295 294 294 294 294 293 293 297 295 293 293 294 293 300
291 291 292 292 291 291 291 291 291 292 293 293 293 293 292 291 292 293 293 292 292 291 291 290 291 291 291 291 291 291 291 291 290 291 291 291 290 290 290 290 290 290 289 289 289 289 289 289 289 289 289 290 291 291 291 291 291 291 290 290 290 290 290 289 292 295 297 298 295 294 292 292 292 292 292 293 293 293 291 292 292 292 295 298 299
289 290 291 291 291 291 290 290 290 290 291 292 293 293 292 291 292 292 291 291 291 291 291 290 290 291 291 291 291 291 291 290 290 290 290 290 290 289 289 289 289 289 288 288 288 289 289 289 288 289 289 289 290 290 291 291 291 292 291 290 290 290 290 291 291 293 291 291 290 290 290 290 291 293 296 299 299 300 293 292 291 293 299 300 299
288 288 290 289 289 289 290 290 289 289 289 290 290 291 292 291 291 290 290 290 289 289 289 287 287 287 287 287 288 288 288 288 288 288 288 289 289 288 288 289 288 288 288 288 288 288 288 288 288 288 289 289 289 289 290 290 290 290 291 291 291 291 291 290 292 293 292 294 294 295 295 294 294 293 292 293 294 295 296 296 295 297 299 300 299
287 288 289 289 289 288 288 289 288 287 287 288 288 288 288 289 289 289 288 288 288 287 287 286 286 287 287 287 287 287 287 287 287 287 288 288 288 288 288 288 288 288 288 288 288 288 288 288 288 288 288 288 288 288 288 289 290 290 290 290 290 290 290 290 291 292 293 293 294 293 294 295 296 295 296 296 296 296 296 296 297 297 298 299 298
287 286 287 288 288 288 288 288 287 286 286 287 287 287 287 287 287 287 286 288 287 287 285 285 285 285 286 287 287 287 287 287 286 286 287 287 288 289 288 288 288 288 288 289 288 288 289 288 288 288 287 288 288 288 289 289 290 289 288 289 289 289 290 290 290 290 291 291 292 293 293 293 293 291 291 293 293 293 292 293 296 297 297 298 297
287 288 288 288 288 288 287 288 286 286 287 287 286 287 287 288 287 287 286 288 287 285 285 285 285 285 286 286 286 286 287 286 286 286 286 287 285 289 289 288 288 289 289 289 289 289 290 290 288 288 288 288 288 290 290 289 289 288 289 288 288 288 288 289 289 288 289 288 289 291 291 291 290 290 291 290 290 290 290 290 290 291 295 297 296
286 287 286 287 286 287 287 287 286 286 287 287 287 287 287 287 286 286 286 286 286 287 286 285 285 285 285 286 286 285 285 285 285 286 285 285 286 287 287 288 289 290 289 289 289 289 289 288 289 288 289 288 288 288 288 288 288 288 288 288 288 288 288 288 288 288 288 289 290 291 291 290 289 290 289 290 289 289 289 289 289 290 292 293 292
Wind_Speed
6 7 7 7 8 7 6 6 8 7 7 7 7 8 9 8 8 8 7 7 6 7 6 6 6 6 4 5 5 4 4 3 3 2 2 3 4 4 4 4 4 5 4 4 3 4 3 4 4 4 4 4 5 5 4 4 4 5 6 5 8 7 4 5 5 7 8 6 5 5 4 3 4 5 5 5 4 4 4 6 6 7 7 6 5
8 7 7 8 8 8 7 6 9 11 10 8 8 9 9 8 8 7 7 8 7 7 7 7 6 6 5 5 4 5 5 5 3 2 3 4 4 4 5 4 4 5 5 4 3 3 4 4 5 5 4 4 4 4 4 4 5 6 6 6 3 6 4 4 6 7 3 4 6 4 4 5 5 6 7 6 5 5 5 6 6 6 6 6 6
9 9 8 8 9 11 6 6 7 7 8 8 6 8 9 8 7 7 7 8 7 8 8 7 5 4 4 4 5 4 3 3 3 3 4 4 4 4 3 4 3 4 4 5 5 4 4 4 5 4 4 5 5 5 5 5 5 6 6 7 6 3 4 2 1 3 4 3 3 6 3 4 4 5 5 7 5 5 6 7 6 6 6 6 5
11 11 10 9 9 10 7 7 6 6 6 7 7 8 7 7 8 7 7 7 7 7 6 4 5 5 6 6 5 4 4 3 3 3 3 4 3 3 4 4 4 4 5 5 4 5 5 5 5 6 5 5 6 6 5 5 5 5 5 6 8 8 3 1 2 1 4 7 3 2 3 4 5 4 6 5 4 6 7 6 6 6 6 6 5
10 11 10 10 10 11 9 7 5 7 7 8 8 7 6 8 8 8 7 7 6 7 6 6 7 7 6 6 6 6 5 4 4 3 3 4 4 4 4 5 5 5 5 5 4 5 4 4 5 5 6 5 5 6 6 6 5 5 6 6 8 9 6 3 2 1 4 2 6 5 3 1 2 4 5 5 5 6 7 6 6 7 6 5 5
12 11 11 10 10 9 8 8 7 7 7 7 7 6 6 7 8 7 6 6 7 7 7 7 7 8 7 7 6 4 5 5 5 5 4 5 4 3 3 3 4 4 3 3 4 4 4 4 4 5 5 5 5 6 6 5 5 6 6 6 6 3 7 6 3 2 1 2 1 1 4 5 7 4 3 3 4 5 4 6 6 7 6 6 5
7 7 8 12 9 10 9 8 8 8 6 7 6 6 6 6 7 7 7 6 6 6 6 6 6 6 6 7 6 6 7 2 1 2 5 4 4 5 4 3 3 4 3 3 3 3 4 4 5 5 5 5 4 5 6 6 6 5 4 5 4 4 5 6 7 5 2 1 1 1 2 2 8 8 3 6 5 3 5 4 6 7 6 6 5
10 10 9 10 9 10 10 9 8 7 7 7 6 6 7 7 7 8 6 6 6 6 6 6 7 6 6 5 5 5 5 5 3 4 3 4 5 4 4 3 3 3 3 3 3 3 4 4 4 4 5 4 5 5 5 5 5 4 4 3 5 5 5 7 5 6 7 3 2 3 5 6 5 5 6 7 7 7 3 4 6 6 6 5 4
8 10 10 11 10 10 9 9 7 7 7 7 6 6 5 5 6 6 7 6 6 6 7 6 7 7 6 6 5 2 4 4 4 3 4 4 5 3 4 3 3 2 2 3 3 3 3 4 4 4 5 5 5 5 4 5 7 7 6 5 6 5 4 5 6 7 4 3 3 5 6 5 5 5 5 5 5 7 4 4 3 4 6 5 4
7 7 8 10 10 9 8 7 7 7 7 7 6 6 5 5 6 7 7 6 6 6 6 5 5 6 6 5 6 4 4 4 4 4 3 3 4 3 3 3 3 3 3 2 3 3 4 4 4 5 4 5 4 5 5 5 5 6 7 7 6 6 4 5 6 4 4 6 4 4 4 3 4 3 4 5 6 4 8 8 6 8 5 2 4
8 7 9 9 8 8 9 9 7 7 6 7 6 6 6 5 5 6 5 5 5 6 6 6 5 5 6 6 6 6 4 5 5 3 3 3 4 2 3 2 2 2 2 2 2 2 3 4 4 4 4 4 5 5 6 6 6 6 5 5 6 7 5 5 4 6 5 6 6 6 6 8 7 5 7 4 6 5 7 6 4 3 5 5 3
9 9 10 10 9 8 9 9 8 8 7 7 6 6 6 4 5 7 5 6 5 6 6 6 6 5 4 6 7 6 6 5 6 5 4 4 3 3 2 3 2 2 2 2 3 3 3 3 4 4 5 5 5 5 5 6 5 5 5 5 5 5 5 5 5 6 6 5 6 5 6 5 4 5 6 6 8 7 9 8 6 4 4 2 0
10 8 11 10 10 10 10 9 9 9 9 8 8 7 6 5 6 8 6 5 6 6 7 6 6 6 6 6 6 6 6 6 6 5 3 4 4 4 3 3 2 3 1 3 2 2 2 4 5 5 5 5 4 4 4 5 6 5 5 5 5 6 6 6 6 7 7 7 7 5 4 4 4 3 6 6 5 7 10 9 2 3 4 2 1
9 8 10 10 9 8 8 9 9 9 9 8 8 7 6 5 5 7 6 5 5 6 6 7 6 6 6 7 7 7 6 5 5 6 4 4 5 5 5 5 5 4 4 3 2 2 2 2 2 3 2 2 2 2 3 4 5 5 5 6 6 5 5 6 5 6 5 5 5 5 5 4 4 5 6 7 8 8 8 10 7 4 3 4 0
8 8 10 10 8 9 8 8 8 8 8 8 7 7 6 6 6 7 8 6 6 6 6 7 6 6 6 6 7 5 6 6 5 6 6 5 3 4 3 3 4 4 4 2 2 3 4 4 4 5 4 4 3 3 3 3 3 3 3 3 3 4 5 5 4 6 5 5 5 5 4 3 4 6 6 7 8 9 10 9 10 9 4 2 1
8 8 8 8 7 8 8 8 7 7 9 7 8 7 7 7 7 7 8 6 6 7 6 7 6 6 5 6 6 6 4 5 5 4 4 5 6 5 5 3 3 4 2 3 2 3 4 5 5 5 5 5 4 4 4 4 4 4 3 3 4 2 4 5 4 5 6 6 6 4 4 4 4 5 5 6 6 7 8 8 9 10 10 4 1
7 7 6 7 8 8 8 8 7 8 8 8 8 8 8 7 7 7 6 5 5 6 7 6 6 7 6 6 7 6 7 7 7 6 6 4 4 4 5 4 3 3 4 2 3 3 4 5 5 5 5 5 5 5 5 5 5 4 4 5 4 4 4 5 4 5 4 5 5 6 5 4 4 4 4 5 5 6 7 8 9 10 8 9 5
6 6 7 7 8 8 8 6 7 7 8 8 8 7 6 6 7 7 6 7 5 5 6 6 7 6 6 6 6 8 8 7 7 8 6 5 3 3 4 5 4 4 4 3 3 4 4 4 5 4 4 5 5 5 5 5 5 5 4 4 4 5 5 4 3 4 5 5 4 4 4 5 4 5 5 6 6 7 7 7 5 4 8 10 6
4 8 8 8 8 10 9 9 9 8 8 8 7 6 4 3 3 4 4 3 3 3 3 3 5 5 5 6 6 5 4 5 5 6 5 5 5 4 4 4 4 3 5 4 4 4 4 4 4 4 4 5 5 5 5 5 5 6 4 4 3 4 5 5 3 4 4 5 6 5 4 4 5 5 5 5 5 6 6 5 5 5 4 7 9
10 8 9 7 8 11 12 11 11 11 10 8 7 5 7 7 7 7 7 6 5 3 3 6 4 4 3 3 3 3 4 5 6 7 6 6 6 5 4 4 5 4 4 3 4 4 4 5 4 4 5 5 5 4 4 5 5 5 4 5 4 5 5 5 4 4 3 4 6 6 5 5 5 5 5 5 6 5 6 6 6 6 5 5 6
0 9 8 7 8 9 12 11 9 8 6 5 5 7 8 8 10 9 10 9 7 5 4 4 5 5 6 5 4 3 5 4 5 5 7 5 5 4 4 4 4 4 4 4 4 4 4 5 5 4 5 5 5 4 4 4 5 5 5 5 5 5 6 4 5 5 4 5 5 5 4 4 5 7 6 5 6 6 5 4 5 6 5 5 6
9 9 15 13 12 15 14 8 4 2 5 8 8 10 10 12 11 10 10 8 9 8 7 7 6 5 4 5 4 4 5 5 6 5 6 6 6 5 5 4 4 3 3 5 4 3 4 5 5 5 5 5 5 5 4 4 6 6 5 3 5 5 5 5 4 5 4 4 4 5 5 5 4 6 6 7 7 6 6 6 6 6 6 6 5
6 6 9 12 14 14 14 12 11 10 8 7 9 10 12 13 11 9 10 8 8 7 7 7 7 7 7 5 5 5 6 7 7 6 6 6 5 5 4 6 5 4 2 3 4 4 4 4 5 5 5 5 5 5 4 5 5 6 6 4 4 4 5 5 4 4 5 4 5 4 5 5 4 6 5 4 5 6 6 7 7 5 6 6 6
12 6 3 6 8 10 10 9 9 7 5 7 8 9 9 8 8 8 10 10 9 8 7 7 7 6 6 6 4 3 4 5 6 6 6 5 4 4 3 5 4 3 5 3 3 4 4 4 5 4 4 4 4 4 4 4 4 5 6 6 5 4 4 4 5 5 4 4 6 5 4 5 5 6 5 6 5 6 6 6 6 5 5 7 6
10 7 6 7 8 8 7 6 7 6 5 1 5 8 7 8 8 9 9 10 9 9 8 7 7 7 6 5 4 3 4 3 3 5 6 5 4 4 3 5 5 3 3 4 3 3 4 4 5 5 4 4 4 5 5 4 4 3 5 5 5 5 4 4 4 4 4 5 4 4 5 5 6 6 5 5 5 6 5 5 6 6 5 4 4
9 10 10 10 10 9 8 6 4 6 5 4 5 7 7 6 5 5 8 7 10 9 10 9 7 7 7 6 4 3 3 3 3 5 6 6 5 4 4 3 4 5 3 3 4 2 3 4 4 4 3 4 4 4 4 5 5 5 4 4 4 5 4 4 3 3 4 5 5 5 5 5 6 7 6 5 5 6 5 5 5 5 5 5 5
9 9 6 9 12 11 9 9 7 5 6 4 4 7 8 9 7 7 7 7 7 9 11 11 10 8 6 7 6 4 3 4 3 1 3 4 4 4 4 4 3 4 5 4 3 4 2 4 3 3 3 3 3 3 2 3 4 5 5 5 4 4 4 3 2 1 1 1 1 3 4 4 4 4 6 6 6 5 5 6 6 6 6 6 6
10 10 10 11 11 11 10 8 9 7 6 6 5 6 6 7 7 6 6 6 6 7 7 6 8 9 7 5 6 6 4 3 4 5 5 4 2 3 3 3 3 4 3 3 3 3 3 3 3 3 3 3 3 3 3 3 3 4 4 4 4 3 3 2 1 1 1 1 1 1 1 2 3 4 5 5 5 5 4 4 3 4 5 6 6
13 11 11 12 11 10 9 9 8 9 9 8 5 7 8 8 7 5 5 5 5 7 6 6 6 6 7 7 4 6 5 3 4 5 3 2 2 2 2 2 2 2 1 1 1 2 2 2 2 2 2 2 3 3 4 4 5 5 4 5 4 4 3 2 2 2 1 1 0 1 1 2 3 3 3 3 5 6 7 5 4 5 5 5 5
12 12 12 11 12 11 10 10 10 11 10 9 8 9 8 8 7 7 7 6 7 7 8 7 7 7 5 6 7 6 6 5 6 6 4 4 4 4 4 3 3 2 1 0 1 1 2 3 2 1 1 1 2 3 2 4 3 4 6 4 4 4 4 4 3 2 3 3 3 3 3 3 4 3 4 4 4 5 5 4 7 7 7 6 6
12 11 12 11 11 10 11 13 13 13 12 11 11 11 12 13 11 11 10 9 10 10 10 10 9 8 8 9 10 9 9 10 7 5 6 7 6 6 6 5 5 5 5 4 4 4 3 1 1 1 0 2 2 4 6 5 5 5 1 3 4 4 4 4 4 4 4 4 4 4 4 3 4 3 4 5 6 5 4 3 4 9 9 9 8
12 13 13 12 12 11 14 14 13 13 13 12 13 13 15 13 12 12 10 11 12 12 13 12 10 11 11 11 10 10 11 9 9 8 8 7 8 9 8 7 7 7 6 6 7 5 6 5 3 2 2 3 3 6 7 5 3 2 3 3 3 1 2 3 4 5 4 4 5 5 4 4 4 5 5 5 5 5 4 3 1 3 3 2 0
10 11 12 13 13 12 13 14 13 12 12 12 12 15 14 14 15 11 11 13 13 13 13 13 12 12 11 11 11 12 10 10 10 9 9 9 10 11 10 10 9 7 6 8 6 8 8 7 7 7 7 7 8 13 13 13 11 8 4 2 2 2 3 3 3 4 4 5 4 5 5 4 4 5 5 5 5 5 5 4 3 3 3 4 3
9 10 10 9 9 11 11 12 12 12 12 11 13 15 13 13 14 13 15 12 13 13 14 13 13 12 11 10 11 12 12 10 10 10 11 11 11 10 9 8 8 8 8 8 8 9 8 9 8 7 8 9 10 13 14 14 12 11 9 4 3 3 3 4 4 5 5 5 5 5 5 6 4 4 5 5 5 5 5 5 5 5 5 5 4
8 7 9 10 11 11 11 11 11 11 10 12 13 12 13 13 13 16 14 13 13 14 13 12 13 11 11 10 10 11 12 10 11 11 11 12 11 9 10 8 7 7 8 8 8 8 8 8 9 8 8 10 10 16 16 16 14 12 10 6 5 4 4 5 5 4 5 5 6 5 5 6 6 5 4 5 5 6 6 6 6 6 6 6 5
6 7 7 9 10 10 10 10 8 10 10 11 12 10 13 13 13 14 15 12 14 15 13 12 12 12 12 10 10 11 11 11 10 10 12 12 10 9 9 7 6 6 5 5 7 8 9 9 9 9 9 10 10 16 16 17 16 15 10 6 6 5 5 5 6 6 6 5 5 5 5 6 6 7 6 6 7 4 5 6 7 7 6 5 4
5 6 7 6 7 9 9 9 9 10 10 10 9 11 12 12 13 11 13 13 13 14 13 11 10 10 11 9 9 10 11 9 8 10 10 10 10 10 9 7 7 6 7 7 6 7 7 8 9 9 9 8 9 13 15 16 16 16 12 8 8 7 6 6 6 7 6 5 5 5 6 6 7 8 9 9 10 9 6 7 7 8 6 4 6
6 6 6 6 5 6 8 10 11 11 10 9 9 11 12 13 12 11 12 12 12 11 9 9 9 9 10 8 8 9 9 9 10 11 9 9 8 7 8 7 7 7 7 6 5 6 7 8 9 9 8 8 7 9 13 13 14 14 10 7 6 6 7 7 7 7 6 6 7 8 7 6 7 8 9 9 10 10 8 9 8 9 8 8 8
5 7 8 7 7 8 8 10 12 11 8 8 9 11 13 12 10 10 11 12 11 10 10 8 8 7 9 8 7 8 8 8 8 6 6 6 6 6 5 6 6 6 6 5 6 7 7 8 7 7 10 9 7 8 11 11 12 11 9 6 6 5 6 6 7 8 7 5 6 6 7 8 7 9 10 8 11 10 9 9 10 8 9 9 9
5 6 5 7 7 11 12 12 13 10 7 8 9 12 12 11 10 10 12 11 9 8 7 7 6 7 7 7 6 8 8 7 6 5 5 4 3 4 6 6 5 4 5 5 5 6 7 7 7 7 7 7 7 7 8 11 10 10 10 6 5 5 6 6 7 7 8 8 7 7 6 6 9 11 13 11 10 12 10 9 6 7 7 11 6
6 6 6 8 9 10 11 10 9 8 8 8 9 12 12 10 9 12 11 8 6 5 5 5 5 5 6 7 7 7 6 6 4 5 5 5 6 6 6 7 4 3 3 5 5 4 5 5 4 4 5 5 5 6 7 10 11 10 10 8 5 4 4 5 6 6 6 8 8 7 6 7 9 10 11 13 12 10 11 8 8 8 10 6 7
4 6 7 8 9 9 10 10 8 9 9 9 11 13 10 10 11 11 8 5 6 6 6 6 7 7 7 7 7 6 6 5 4 4 6 5 4 3 3 2 1 1 3 4 5 6 6 6 6 6 7 7 7 10 9 10 11 11 10 9 6 5 5 6 7 7 6 6 7 8 7 7 9 9 10 11 14 14 12 7 9 12 8 9 8
8 8 7 9 9 9 9 8 7 8 8 9 11 12 9 9 10 7 5 6 6 6 6 6 6 7 6 6 6 6 5 4 5 5 5 5 4 4 3 4 5 5 6 7 6 6 5 5 5 5 5 7 8 8 12 11 13 13 11 10 7 5 6 4 5 7 7 8 8 9 9 11 11 10 10 11 12 14 12 10 14 14 12 10 8
5 7 9 10 10 9 8 7 6 6 6 7 10 10 8 9 7 3 4 5 5 5 6 7 7 7 6 6 5 5 5 4 4 4 4 5 5 5 4 5 5 5 5 6 6 6 6 7 7 7 6 6 6 6 8 11 12 14 13 11 10 9 6 5 5 5 6 7 8 9 10 15 16 16 13 11 12 13 10 14 14 15 13 9 7
7 7 8 9 10 10 9 7 6 6 5 5 7 10 8 8 3 3 4 5 5 5 6 6 6 5 5 4 5 5 5 5 5 6 6 6 7 6 6 6 5 5 5 5 5 4 4 4 4 5 5 5 5 5 5 8 11 12 12 12 12 11 11 8 6 6 6 7 9 13 15 16 16 16 16 14 11 12 14 14 14 13 9 6 7
7 7 8 9 9 9 9 8 6 5 5 4 5 7 9 5 3 3 3 4 5 5 6 5 4 4 4 4 5 6 6 6 7 6 6 5 5 5 5 6 5 5 4 5 5 5 5 5 5 5 6 6 6 5 5 6 6 6 7 10 12 13 13 12 9 8 12 14 13 13 14 15 13 12 9 7 8 9 10 12 10 9 8 9 8
7 5 6 8 8 8 8 7 6 3 4 3 4 4 5 4 3 2 3 4 5 5 5 4 3 3 2 3 4 4 4 4 4 4 4 4 3 3 4 4 5 5 5 5 5 5 5 5 5 5 5 5 6 6 6 6 6 6 6 7 7 9 11 10 8 7 7 7 9 8 7 9 10 13 13 11 10 9 8 6 6 7 8 9 9
4 4 7 6 7 7 7 7 5 3 3 4 4 3 2 2 2 3 3 4 4 4 4 3 2 2 2 2 2 2 2 2 2 2 3 4 4 3 4 5 5 5 5 5 4 4 5 5 5 5 5 5 5 5 6 6 6 6 6 5 6 7 7 7 9 8 6 7 8 9 9 7 6 6 6 6 7 7 7 8 6 6 8 9 10
6 4 5 7 5 6 5 6 4 3 4 4 4 3 1 2 2 3 3 5 4 3 3 3 2 2 2 1 1 1 1 1 1 2 2 1 2 4 5 5 4 3 3 4 5 5 5 5 5 5 6 7 6 6 7 6 8 9 9 7 6 6 5 6 8 11 10 9 7 6 6 6 5 4 4 6 6 6 7 6 6 6 7 8 8
4 5 6 5 5 6 5 5 3 3 4 4 3 2 1 0 2 3 3 5 3 3 3 2 2 2 1 1 2 1 1 1 1 1 2 4 4 5 4 3 5 6 7 7 3 4 5 5 5 6 6 6 7 8 11 13 14 14 14 14 13 13 12 10 12 13 9 6 5 5 4 4 4 4 5 4 4 4 4 4 3 4 6 8 9
4 6 4 5 3 4 4 4 2 1 3 4 4 3 2 1 1 3 4 4 3 3 2 1 1 2 2 2 2 2 1 1 1 1 1 3 5 4 5 7 6 7 8 8 9 9 9 8 5 5 7 11 13 14 14 14 14 15 15 14 14 13 13 14 13 8 3 3 5 4 4 3 4 5 4 4 3 2 3 3 2 2 6 7 7
Wind_Direction
146 153 157 154 156 154 156 144 155 161 169 173 159 162 164 164 165 157 146 143 141 141 147 145 145 137 140 154 148 135 136 129 134 143 140 146 148 150 156 158 151 148 146 139 126 156 148 146 143 143 128 126 130 138 141 136 130 122 114 108 123 119 94 96 103 105 104 78 73 80 60 61 94 98 81 68 65 68 78 77 80 79 76 79 84
144 155 155 155 161 159 152 148 155 160 172 176 167 160 163 160 165 147 139 143 149 155 158 163 168 167 153 155 132 140 148 150 147 155 176 166 159 161 165 165 151 151 155 139 141 166 151 157 150 149 138 113 112 120 130 134 127 125 127 95 27 118 112 135 138 114 53 141 133 102 64 64 69 69 65 51 60 68 75 81 80 81 85 87 89
164 172 157 163 162 159 144 153 158 155 165 174 158 152 155 158 154 147 143 146 155 163 164 167 158 134 132 130 132 109 75 107 133 172 174 166 157 161 141 132 147 157 154 154 173 192 155 150 145 145 136 135 128 133 134 137 147 146 148 133 118 33 99 68 63 37 132 122 94 100 71 74 360 36 43 39 37 66 70 72 78 85 90 88 82
173 174 170 163 161 158 151 157 152 147 157 159 163 163 156 155 149 151 151 152 161 165 158 132 126 113 101 116 98 105 138 119 95 114 124 124 133 145 145 170 173 170 163 161 163 167 163 156 148 155 150 145 147 148 148 150 146 143 132 136 132 129 122 129 324 228 169 143 94 75 167 119 94 39 58 27 20 55 68 72 86 90 87 87 83
169 170 174 166 159 159 156 155 149 153 163 162 169 164 157 152 151 157 159 163 162 154 143 136 120 100 102 95 98 83 76 91 100 78 124 143 128 135 139 155 162 165 164 160 158 164 157 151 160 157 153 147 152 155 157 165 165 156 154 150 160 149 148 111 318 115 184 332 144 123 69 74 197 169 118 44 358 51 54 72 82 88 88 82 78
178 174 177 168 160 144 151 155 161 162 164 169 173 164 157 153 153 153 151 155 157 145 145 139 137 134 132 131 130 117 132 136 155 159 159 159 150 115 95 132 143 145 147 146 151 146 155 159 157 158 155 152 163 161 149 143 156 163 180 164 158 175 145 135 131 34 59 47 29 203 168 170 159 187 92 97 31 49 52 66 72 79 85 91 91
171 161 160 159 160 150 150 159 169 169 162 159 165 163 158 154 155 155 154 147 141 138 141 131 122 130 144 150 151 156 150 207 182 135 148 109 111 116 107 97 115 130 124 126 144 146 139 154 164 164 156 158 153 147 156 168 169 170 156 153 137 123 139 141 155 164 115 46 24 321 74 103 145 139 121 113 105 3 25 42 62 76 83 83 74
171 163 151 152 158 164 159 164 170 168 151 152 154 151 161 162 159 156 147 142 139 138 134 136 134 140 134 140 149 149 152 159 153 126 95 111 96 106 105 89 93 116 126 137 146 148 142 146 147 148 152 148 150 176 167 161 148 122 140 151 142 171 165 137 169 182 169 186 14 37 70 86 74 58 129 151 134 133 95 63 66 68 65 54 55
173 167 158 154 160 168 163 162 158 151 153 155 155 155 149 153 151 144 143 140 139 142 138 143 145 149 146 143 130 112 126 124 110 84 89 86 95 80 94 83 73 73 108 137 145 156 162 155 154 150 152 156 167 154 157 166 166 155 162 163 169 163 173 166 160 189 162 105 62 39 68 73 61 66 93 95 138 126 118 133 122 80 68 42 28
173 162 154 154 166 165 157 141 145 152 146 146 138 136 144 156 154 147 145 142 143 143 141 139 138 137 139 145 134 116 101 82 88 89 81 92 107 93 98 95 91 100 92 122 146 163 156 148 152 163 165 160 160 160 157 166 173 172 178 173 167 164 169 166 182 122 109 130 148 166 119 101 69 74 62 101 59 58 148 157 154 141 125 16 8
170 154 159 162 163 152 143 151 149 135 137 141 138 145 154 160 154 142 141 136 144 147 142 139 138 145 147 143 136 130 117 114 100 83 89 88 106 76 68 60 50 64 79 77 107 131 156 159 155 164 168 168 160 160 165 173 180 180 167 156 164 164 171 168 130 145 152 132 156 172 163 164 172 173 172 156 133 118 107 129 115 60 123 116 21
170 163 162 161 155 149 150 152 149 142 135 143 146 147 155 157 151 140 145 150 148 145 137 139 145 148 146 142 141 141 139 142 144 152 154 141 130 109 77 77 51 56 61 85 72 77 111 138 147 152 170 173 177 175 168 169 167 158 156 163 168 166 154 154 151 159 166 153 181 174 201 184 165 158 156 143 141 148 140 144 133 117 73 35 65
177 168 163 171 169 158 157 153 151 148 146 151 154 158 158 157 163 151 156 155 149 148 147 147 148 154 152 147 141 142 151 152 149 142 156 143 145 129 121 124 119 100 123 119 69 74 95 116 150 162 172 190 184 170 165 159 157 161 166 163 165 171 176 165 165 175 173 171 191 187 181 168 169 117 121 115 89 122 130 125 41 82 126 133 134
182 174 169 179 169 155 151 152 157 159 157 151 155 162 162 160 165 156 156 157 149 147 145 145 155 156 154 149 149 150 157 149 147 148 160 159 162 156 159 161 163 175 170 155 172 126 102 118 138 139 130 135 152 152 146 153 158 165 164 167 175 177 160 171 168 166 179 181 154 154 180 177 144 131 129 129 134 129 137 139 131 66 77 130 322
188 181 173 177 162 153 150 157 162 160 153 148 157 163 157 161 168 159 155 163 152 148 142 146 149 151 152 149 146 149 149 145 151 152 151 155 173 149 159 159 151 177 157 157 114 114 116 111 113 107 111 115 115 119 120 121 134 136 153 140 128 156 162 151 147 155 163 168 174 168 154 151 139 135 144 148 154 150 146 149 137 126 75 37 14
184 179 163 165 151 150 148 154 157 153 155 155 159 158 165 174 175 167 160 153 147 145 152 151 150 143 138 141 145 140 135 131 131 142 158 163 163 158 161 165 155 137 126 117 95 108 123 109 103 108 118 113 105 108 111 112 116 116 95 104 107 109 141 152 169 169 173 174 170 136 138 165 141 144 152 156 152 150 145 151 149 143 143 153 350
174 169 152 147 150 156 152 151 148 153 159 164 165 167 172 171 166 156 146 141 144 154 151 147 140 136 142 142 140 141 149 155 159 163 164 158 152 154 151 154 133 128 127 112 93 78 95 108 103 102 102 112 108 107 112 113 110 108 120 126 129 129 128 159 165 175 172 157 144 161 166 158 153 142 135 135 135 144 153 156 161 158 157 137 148
149 141 138 156 156 147 134 133 142 154 160 163 168 172 175 175 165 146 139 146 152 150 149 147 144 142 145 151 159 158 159 157 155 156 156 142 138 136 128 130 142 139 127 116 102 91 80 86 102 92 95 98 112 114 116 119 113 102 117 110 136 133 118 114 144 152 151 148 138 147 156 163 149 155 160 153 150 152 153 164 158 134 146 146 157
158 149 150 160 156 147 137 140 144 153 164 167 167 160 137 101 77 84 93 79 103 111 119 120 138 144 153 161 156 151 146 143 143 140 142 143 153 161 157 144 126 123 122 122 110 101 101 88 93 101 91 93 90 97 114 113 120 119 115 114 105 117 116 105 99 130 146 144 148 155 170 162 152 159 151 147 141 150 156 149 137 142 154 148 150
172 161 148 157 155 146 141 144 150 162 170 167 153 129 110 93 86 84 77 76 66 63 120 140 130 125 121 117 133 136 139 140 146 146 149 157 162 159 149 138 145 127 124 125 117 113 117 114 103 104 102 95 91 75 84 96 93 93 107 103 88 99 96 101 92 73 105 121 134 147 173 168 150 142 148 156 157 159 156 157 153 144 117 123 134
356 149 124 171 164 139 135 131 150 164 158 134 116 110 102 95 98 106 112 115 114 122 118 126 130 133 142 147 141 130 126 128 133 148 146 154 155 153 157 145 120 128 135 119 110 115 118 121 115 105 110 109 105 90 73 87 87 83 69 98 97 93 106 95 101 83 77 103 113 135 155 160 155 156 161 155 155 156 150 140 138 141 134 147 142
49 57 86 72 69 80 87 108 96 92 105 96 106 113 117 125 140 139 132 135 129 127 128 122 111 110 119 118 122 124 139 138 137 142 143 149 151 154 150 132 132 145 135 129 115 116 115 117 109 106 101 101 100 104 102 104 109 99 83 79 109 106 101 93 92 99 87 94 104 119 128 136 156 153 159 161 157 150 156 153 167 165 161 166 177
22 70 101 119 123 129 150 169 162 139 132 145 143 142 144 147 146 142 134 138 126 117 115 121 124 129 127 127 139 150 145 142 137 142 147 149 147 147 151 139 141 132 98 117 131 124 120 108 102 101 105 106 112 109 106 112 117 119 117 101 101 122 125 122 111 120 119 122 105 114 119 128 133 134 149 145 150 156 158 172 178 175 173 178 186
69 7 63 102 114 120 122 154 156 118 114 145 149 148 149 146 140 137 133 132 122 122 115 101 98 93 97 104 108 111 125 137 141 149 148 139 134 137 138 129 135 132 117 90 103 116 107 107 104 99 100 107 103 106 99 99 114 128 125 121 112 97 91 120 139 145 136 126 131 112 110 123 131 126 142 148 157 158 175 185 180 185 178 184 189
60 50 40 75 90 95 110 94 78 93 108 132 151 135 125 142 151 148 143 139 132 129 114 101 101 99 85 88 92 102 114 123 144 141 133 129 133 132 128 133 126 114 122 114 91 94 97 110 124 134 129 128 130 124 117 116 113 105 121 128 124 118 116 122 146 158 147 136 136 135 148 136 134 123 134 144 159 169 185 180 194 184 186 175 179
46 57 48 56 60 58 50 55 91 123 116 91 85 98 101 113 140 132 120 127 138 133 115 102 88 83 87 77 64 73 102 123 170 146 143 141 139 132 126 121 133 131 116 119 129 112 127 120 130 135 128 141 143 139 138 145 135 122 107 104 112 122 137 142 155 186 163 156 149 151 157 154 150 149 166 161 163 172 165 181 186 189 174 159 173
44 55 58 62 61 59 58 56 56 53 89 97 117 127 138 137 133 122 129 134 135 139 135 132 120 115 123 122 104 66 49 56 28 27 101 121 128 131 133 136 142 140 148 145 145 138 137 138 147 141 130 134 132 130 125 127 137 136 135 133 125 115 120 132 171 274 355 5 80 117 149 159 167 160 157 175 170 165 175 183 188 177 165 163 172
46 38 46 61 63 57 41 49 62 45 40 63 72 83 91 98 103 122 146 152 131 124 117 117 133 138 138 114 103 92 65 50 61 50 28 30 64 100 124 134 133 129 135 157 174 168 160 139 152 136 126 132 130 134 128 125 134 151 144 142 145 136 126 116 62 10 37 46 55 44 352 245 201 183 174 174 167 176 163 176 170 158 159 160 173
60 48 44 45 54 65 62 46 59 70 65 54 62 94 98 98 100 97 89 95 126 130 117 115 114 116 131 129 110 99 89 62 83 86 74 57 48 58 69 99 104 97 94 173 181 153 153 145 116 113 128 127 147 172 164 158 149 162 164 165 159 145 148 153 159 193 273 240 156 161 188 201 228 248 236 197 195 176 164 168 188 163 162 169 158
62 61 52 50 51 49 54 59 55 57 60 62 56 53 49 60 69 83 93 97 89 88 92 87 82 79 73 85 86 72 74 68 47 58 57 53 46 36 26 33 44 58 57 54 103 136 158 179 174 119 93 164 176 176 184 180 193 167 168 161 151 157 161 169 179 205 260 243 229 198 193 213 232 230 209 219 219 222 221 191 171 168 169 166 171
57 52 57 53 54 58 62 61 59 60 59 61 62 57 58 53 46 54 55 60 71 70 75 71 58 61 63 62 60 53 56 51 43 44 50 51 50 52 46 36 33 37 40 37 54 43 20 12 138 147 338 331 4 38 30 9 353 352 4 165 171 177 170 171 179 192 229 250 251 215 200 209 212 215 205 209 223 241 263 322 194 193 180 171 168
72 66 62 55 56 54 55 59 62 62 60 65 68 63 65 56 49 50 57 63 64 66 65 62 64 63 62 64 64 65 61 55 52 44 46 46 48 48 37 25 30 37 35 50 54 53 50 32 31 37 40 3 4 20 24 47 50 8 2 356 347 284 211 195 191 196 224 232 251 260 242 212 215 211 203 198 209 215 226 245 207 183 213 258 158
78 79 77 76 66 54 56 56 54 56 64 61 78 76 67 69 61 45 60 65 66 66 67 64 58 60 63 65 63 60 56 57 51 50 48 47 45 44 34 25 23 10 27 44 36 46 43 38 44 46 36 26 30 17 15 10 6 5 0 1 6 17 332 301 284 261 249 244 243 254 271 240 230 212 210 209 206 201 181 184 179 158 157 169 159
82 75 73 67 67 69 62 58 60 58 59 69 66 78 80 75 78 66 56 57 66 62 64 62 59 55 56 60 64 65 57 50 50 51 52 49 44 41 35 31 25 23 29 32 33 40 40 39 35 37 41 40 37 16 25 24 22 18 7 352 303 295 263 253 252 250 254 257 252 255 268 273 245 205 213 205 206 210 187 169 175 182 186 167 152
70 72 75 74 74 70 68 63 58 62 64 66 66 68 76 71 70 74 65 61 62 61 58 57 60 55 51 52 58 58 56 48 46 44 50 52 47 38 32 28 33 31 25 27 30 37 35 39 35 38 52 47 31 24 29 28 27 22 5 4 359 349 324 302 283 255 251 252 256 250 251 266 292 281 232 218 210 213 201 204 196 201 196 195 193
62 74 70 76 75 73 72 71 69 65 62 63 69 65 72 75 71 73 74 59 65 66 59 58 59 55 54 47 54 61 57 49 46 44 46 47 44 38 27 10 31 41 37 36 39 44 40 39 35 38 49 46 32 29 30 29 26 19 19 31 16 358 331 316 303 291 274 264 255 239 233 246 253 261 256 215 217 202 204 217 222 222 216 210 220
70 79 86 79 85 88 84 82 71 68 67 64 68 71 70 69 67 64 70 69 62 66 63 56 58 61 63 55 52 62 64 55 56 57 48 47 39 33 26 12 23 31 39 37 40 46 42 45 41 40 44 41 32 25 30 30 27 20 23 16 11 1 349 329 308 304 303 291 266 239 239 246 244 245 236 206 195 173 200 216 230 231 236 229 242
95 88 85 80 76 82 83 84 81 71 70 74 76 79 76 71 67 66 69 67 66 64 59 60 61 62 66 58 54 56 63 61 51 52 47 47 44 42 37 19 21 15 31 28 36 48 45 45 43 38 37 42 31 27 33 31 28 22 23 20 3 357 340 338 326 324 323 315 303 301 281 257 254 254 251 218 189 176 197 209 213 224 224 229 244
68 85 89 85 80 82 84 83 79 76 74 85 90 91 88 85 83 81 81 78 70 69 62 49 49 52 62 64 60 63 62 61 66 67 64 67 65 65 46 39 23 15 15 12 24 40 39 39 39 40 36 39 27 18 23 28 32 27 21 10 9 0 347 339 330 318 317 312 309 306 294 281 274 273 273 229 196 189 207 209 216 217 228 232 236
58 50 57 68 76 79 70 69 71 72 78 83 87 83 80 83 85 87 80 79 80 82 89 89 69 58 61 60 61 65 63 62 65 64 60 68 87 74 68 67 38 12 359 15 26 42 45 35 24 28 28 31 26 12 10 14 25 27 23 13 1 10 356 337 330 320 316 311 303 298 289 274 269 273 275 264 218 203 211 221 212 207 222 240 212
66 63 56 61 54 64 71 73 77 80 80 81 82 79 77 79 79 75 72 75 82 89 90 94 93 82 75 75 70 73 73 69 68 70 63 50 39 42 38 46 43 19 21 23 23 36 49 44 39 38 33 25 21 8 1 8 7 13 17 23 2 9 345 331 320 312 305 305 304 298 294 289 270 259 259 265 267 232 223 232 225 224 222 219 123
60 68 69 67 67 68 69 67 67 72 71 71 74 75 72 70 70 69 68 64 66 63 60 59 58 57 56 56 57 55 61 63 61 64 64 57 52 67 67 86 139 82 52 51 29 31 27 21 14 17 19 8 0 3 355 354 358 360 4 10 11 350 350 329 324 318 314 307 306 306 301 293 287 274 259 258 260 268 250 226 241 241 226 162 176
80 68 61 77 75 70 70 74 70 74 77 79 81 81 76 71 73 67 60 64 65 66 67 66 62 59 54 53 48 45 40 39 37 39 52 48 41 46 31 30 28 21 21 20 22 21 22 14 12 13 11 1 358 356 354 345 342 345 348 349 352 343 336 334 320 312 310 304 308 306 299 300 295 282 263 251 252 251 258 244 242 242 236 190 156
71 87 95 89 84 80 75 63 58 59 69 78 87 88 86 85 83 75 69 67 65 61 65 64 60 57 48 42 41 41 39 35 34 33 40 38 24 19 27 27 26 27 17 12 3 7 6 6 359 349 351 353 350 353 340 336 331 332 334 332 330 328 322 302 295 282 290 291 298 300 304 310 308 304 294 269 247 242 235 235 233 234 226 191 173
78 78 81 88 97 96 87 70 54 59 58 72 88 96 93 89 93 97 98 92 85 75 76 74 67 61 55 47 39 32 27 23 19 26 28 21 15 13 13 2 15 11 12 9 348 359 354 338 342 331 330 331 337 335 321 313 315 320 323 322 322 320 316 310 287 281 270 271 272 284 293 296 297 296 291 285 272 255 241 235 228 224 208 172 182
84 79 81 92 89 88 87 80 51 40 56 59 74 98 100 118 114 97 98 102 97 89 83 84 80 69 55 45 47 27 23 17 15 16 19 15 14 5 2 350 360 356 357 350 336 340 337 336 329 328 324 319 316 313 304 307 310 310 309 310 311 314 311 306 289 272 269 272 272 270 273 279 285 286 282 267 261 258 246 238 225 196 188 193 182
93 106 105 95 95 92 91 88 76 30 59 56 66 67 106 124 119 104 85 84 75 77 76 70 75 67 42 46 56 39 26 19 12 8 11 8 2 1 345 336 338 338 340 337 335 334 331 323 315 310 307 303 300 298 301 301 300 295 292 300 310 311 310 310 310 302 295 285 285 276 265 267 271 277 274 267 265 260 255 226 189 197 201 200 194
99 107 103 100 103 109 106 97 90 60 65 73 71 75 82 109 109 103 95 79 80 82 90 88 68 40 31 40 51 51 60 29 3 17 17 360 348 347 343 327 326 325 325 320 313 312 298 293 289 285 284 289 285 284 282 281 287 289 289 284 288 288 292 300 302 297 292 295 294 283 277 270 272 280 273 269 259 250 244 240 211 199 206 203 200
109 106 113 121 124 113 114 108 111 113 96 76 70 55 62 134 153 144 121 100 104 105 102 98 93 91 69 98 118 126 139 108 6 340 315 279 286 326 318 312 293 258 256 287 313 295 282 267 267 276 294 299 294 286 274 267 274 281 286 290 286 276 274 275 269 277 294 298 288 273 267 279 269 265 273 267 266 260 259 254 242 212 206 198 186
120 122 124 124 128 130 121 114 123 134 128 115 96 52 8 119 183 173 136 110 123 109 98 106 126 115 133 127 122 116 131 123 102 335 329 324 289 278 270 278 302 305 299 291 242 244 267 278 270 265 244 262 276 272 277 283 287 289 290 286 282 282 280 276 277 281 279 270 261 265 263 264 271 268 265 263 263 262 269 268 256 250 222 200 191
128 106 94 103 103 101 101 89 63 13 87 89 79 67 62 6 209 178 136 120 128 113 113 142 129 140 167 156 137 117 130 107 117 343 323 301 316 316 274 264 261 275 290 294 305 299 294 284 251 259 268 251 255 267 278 283 287 290 288 288 288 289 289 289 290 302 290 239 261 265 273 268 262 255 257 265 264 265 260 266 262 239 232 211 189